Previsão horária em Barrancas

Hoje, 20 Outubro, Terça-feira

Tempo Temperatura Precipitação Vento Pressão Humidade
00:00 +21°C° 0.1 mm 1 m/s 674 mmHg 84%
01:00 +21°C° 0.1 mm 1 m/s 673 mmHg 83%
02:00 +21°C° 0.1 mm 1 m/s 673 mmHg 83%
03:00 +21°C° 0.1 mm 1 m/s 673 mmHg 82%
04:00 +21°C° 0.1 mm 1 m/s 673 mmHg 81%
05:00 +20°C° 0.1 mm 0 m/s 674 mmHg 80%
06:00 +21°C° 0.1 mm 0 m/s 675 mmHg 78%
07:00 +21°C° 0.1 mm 0 m/s 675 mmHg 77%
08:00 +25°C° 0.2 mm 1 m/s 676 mmHg 72%
09:00 +27°C° 0.2 mm 1 m/s 676 mmHg 67%
10:00 +28°C° 0.2 mm 1 m/s 676 mmHg 63%
11:00 +29°C° 0.5 mm 2 m/s 676 mmHg 62%
12:00 +29°C° 0.5 mm 2 m/s 675 mmHg 61%
13:00 +29°C° 0.5 mm 2 m/s 675 mmHg 60%
14:00 +28°C° 0.8 mm 1 m/s 674 mmHg 66%
15:00 +27°C° 0.8 mm 1 m/s 673 mmHg 73%
16:00 +26°C° 0.8 mm 1 m/s 673 mmHg 79%
17:00 +25°C° 1.3 mm 1 m/s 673 mmHg 84%
18:00 +23°C° 1.3 mm 1 m/s 673 mmHg 89%
19:00 +20°C° 1.3 mm 0 m/s 674 mmHg 94%
20:00 +20°C° 0.7 mm 0 m/s 674 mmHg 94%
21:00 +19°C° 0.7 mm 0 m/s 675 mmHg 93%
22:00 +19°C° 0.7 mm 0 m/s 675 mmHg 93%
23:00 +19°C° 0.3 mm 0 m/s 675 mmHg 93%

Amanhã, 21 Outubro, Quarta-feira

Tempo Temperatura Precipitação Vento Pressão Humidade
00:00 +19°C° 0.3 mm 0 m/s 675 mmHg 92%
01:00 +19°C° 0.3 mm 0 m/s 674 mmHg 92%
02:00 +18°C° 0 mm 0 m/s 674 mmHg 91%
03:00 +20°C° 0 mm 1 m/s 674 mmHg 90%
04:00 +20°C° 0 mm 1 m/s 674 mmHg 89%
05:00 +21°C° 0 mm 1 m/s 675 mmHg 86%
06:00 +20°C° 0 mm 0 m/s 676 mmHg 83%
07:00 +21°C° 0 mm 0 m/s 676 mmHg 79%
08:00 +25°C° 0 mm 1 m/s 677 mmHg 70%
09:00 +27°C° 0 mm 1 m/s 677 mmHg 60%
10:00 +30°C° 0 mm 2 m/s 678 mmHg 50%
11:00 +30°C° 0.1 mm 2 m/s 677 mmHg 50%
12:00 +30°C° 0.1 mm 2 m/s 677 mmHg 49%
13:00 +31°C° 0.1 mm 2 m/s 676 mmHg 49%
14:00 +30°C° 0.2 mm 2 m/s 675 mmHg 54%
15:00 +29°C° 0.2 mm 2 m/s 675 mmHg 59%
16:00 +28°C° 0.2 mm 2 m/s 674 mmHg 64%
17:00 +26°C° 0.5 mm 2 m/s 674 mmHg 72%
18:00 +24°C° 0.5 mm 1 m/s 674 mmHg 81%
19:00 +22°C° 0.5 mm 1 m/s 675 mmHg 90%
20:00 +22°C° 0.4 mm 1 m/s 675 mmHg 91%
21:00 +21°C° 0.4 mm 1 m/s 675 mmHg 91%
22:00 +21°C° 0.4 mm 1 m/s 676 mmHg 92%
23:00 +21°C° 0.6 mm 1 m/s 675 mmHg 92%

Depois de amanhã, 22 Outubro, Quinta-feira

Tempo Temperatura Precipitação Vento Pressão Humidade
00:00 +21°C° 0.6 mm 1 m/s 675 mmHg 93%
01:00 +21°C° 0.6 mm 1 m/s 675 mmHg 94%
02:00 +21°C° 0.4 mm 1 m/s 675 mmHg 94%
03:00 +21°C° 0.4 mm 1 m/s 674 mmHg 94%
04:00 +21°C° 0.4 mm 1 m/s 674 mmHg 94%
05:00 +21°C° 0 mm 1 m/s 675 mmHg 91%
06:00 +22°C° 0 mm 1 m/s 675 mmHg 88%
07:00 +21°C° 0 mm 2 m/s 676 mmHg 86%
08:00 +25°C° 0 mm 2 m/s 676 mmHg 73%
09:00 +27°C° 0 mm 2 m/s 677 mmHg 61%
10:00 +30°C° 0 mm 2 m/s 678 mmHg 48%
11:00 +30°C° 0.1 mm 3 m/s 677 mmHg 48%
12:00 +31°C° 0.1 mm 3 m/s 676 mmHg 48%
13:00 +31°C° 0.1 mm 3 m/s 676 mmHg 48%
14:00 +30°C° 0.2 mm 3 m/s 675 mmHg 53%
15:00 +29°C° 0.2 mm 2 m/s 675 mmHg 58%
16:00 +28°C° 0.2 mm 2 m/s 674 mmHg 63%
17:00 +26°C° 0.2 mm 2 m/s 674 mmHg 72%
18:00 +24°C° 0.2 mm 1 m/s 674 mmHg 81%
19:00 +22°C° 0.2 mm 1 m/s 675 mmHg 90%
20:00 +22°C° 0 mm 1 m/s 675 mmHg 89%
21:00 +21°C° 0 mm 1 m/s 675 mmHg 88%
22:00 +21°C° 0 mm 1 m/s 675 mmHg 87%
23:00 +21°C° 0 mm 1 m/s 675 mmHg 85%

23 Outubro, Sexta-feira

Tempo Temperatura Precipitação Vento Pressão Humidade
00:00 +21°C° 0 mm 1 m/s 675 mmHg 83%
01:00 +21°C° 0 mm 1 m/s 674 mmHg 81%
02:00 +21°C° 0 mm 1 m/s 674 mmHg 81%
03:00 +21°C° 0 mm 1 m/s 674 mmHg 80%
04:00 +21°C° 0 mm 1 m/s 674 mmHg 79%
05:00 +22°C° 0.2 mm 1 m/s 675 mmHg 78%
06:00 +22°C° 0.2 mm 1 m/s 675 mmHg 77%
07:00 +23°C° 0.2 mm 1 m/s 676 mmHg 76%
08:00 +25°C° 0.3 mm 1 m/s 676 mmHg 71%
09:00 +26°C° 0.3 mm 2 m/s 677 mmHg 67%
10:00 +28°C° 0.3 mm 2 m/s 677 mmHg 63%
11:00 +28°C° 0.2 mm 2 m/s 676 mmHg 60%
12:00 +29°C° 0.2 mm 2 m/s 676 mmHg 57%
13:00 +29°C° 0.2 mm 3 m/s 675 mmHg 54%
14:00 +29°C° 0.2 mm 2 m/s 674 mmHg 59%
15:00 +28°C° 0.2 mm 2 m/s 674 mmHg 63%
16:00 +27°C° 0.2 mm 2 m/s 673 mmHg 67%
17:00 +25°C° 0.1 mm 2 m/s 673 mmHg 75%
18:00 +23°C° 0.1 mm 1 m/s 673 mmHg 82%
19:00 +22°C° 0.1 mm 1 m/s 674 mmHg 89%
20:00 +22°C° 0 mm 1 m/s 674 mmHg 87%
21:00 +21°C° 0 mm 1 m/s 674 mmHg 86%
22:00 +21°C° 0 mm 1 m/s 675 mmHg 84%
23:00 +21°C° 0 mm 1 m/s 675 mmHg 82%

24 Outubro, Sábado

Tempo Temperatura Precipitação Vento Pressão Humidade
00:00 +21°C° 0 mm 1 m/s 674 mmHg 80%
01:00 +21°C° 0 mm 1 m/s 674 mmHg 78%
02:00 +21°C° 0 mm 1 m/s 674 mmHg 76%
03:00 +21°C° 0 mm 1 m/s 674 mmHg 75%
04:00 +21°C° 0 mm 1 m/s 674 mmHg 74%
05:00 +22°C° 0 mm 1 m/s 675 mmHg 71%
06:00 +23°C° 0 mm 1 m/s 675 mmHg 68%
07:00 +24°C° 0 mm 1 m/s 676 mmHg 65%
08:00 +26°C° 0.1 mm 1 m/s 676 mmHg 61%
09:00 +28°C° 0.1 mm 1 m/s 677 mmHg 57%
10:00 +29°C° 0.1 mm 2 m/s 677 mmHg 53%
11:00 +29°C° 0.3 mm 2 m/s 676 mmHg 54%
12:00 +30°C° 0.3 mm 2 m/s 675 mmHg 55%
13:00 +30°C° 0.3 mm 2 m/s 675 mmHg 56%
14:00 +29°C° 0.5 mm 2 m/s 674 mmHg 61%
15:00 +28°C° 0.5 mm 1 m/s 674 mmHg 66%
16:00 +27°C° 0.5 mm 1 m/s 673 mmHg 72%
17:00 +25°C° 0.9 mm 1 m/s 673 mmHg 79%
18:00 +24°C° 0.9 mm 1 m/s 673 mmHg 87%
19:00 +22°C° 0.9 mm 1 m/s 673 mmHg 94%
20:00 +22°C° 0.4 mm 1 m/s 674 mmHg 94%
21:00 +21°C° 0.4 mm 1 m/s 674 mmHg 94%
22:00 +21°C° 0.4 mm 1 m/s 674 mmHg 93%
23:00 +21°C° 0.4 mm 1 m/s 674 mmHg 93%

25 Outubro, Domingo

Tempo Temperatura Precipitação Vento Pressão Humidade
00:00 +21°C° 0.4 mm 1 m/s 674 mmHg 92%
01:00 +21°C° 0.4 mm 1 m/s 674 mmHg 91%
02:00 +20°C° 0.6 mm 1 m/s 674 mmHg 91%
03:00 +20°C° 0.6 mm 1 m/s 674 mmHg 91%
04:00 +20°C° 0.6 mm 1 m/s 674 mmHg 91%
05:00 +21°C° 0.3 mm 1 m/s 674 mmHg 90%
06:00 +20°C° 0.3 mm 0 m/s 675 mmHg 88%
07:00 +20°C° 0.3 mm 0 m/s 676 mmHg 87%
08:00 +24°C° 0.1 mm 1 m/s 676 mmHg 78%
09:00 +26°C° 0.1 mm 1 m/s 677 mmHg 70%
10:00 +28°C° 0.1 mm 1 m/s 677 mmHg 61%
11:00 +28°C° 0.6 mm 1 m/s 677 mmHg 63%
12:00 +28°C° 0.6 mm 2 m/s 676 mmHg 65%
13:00 +29°C° 0.6 mm 2 m/s 675 mmHg 67%
14:00 +27°C° 1.8 mm 1 m/s 674 mmHg 75%
15:00 +26°C° 1.8 mm 1 m/s 674 mmHg 83%
16:00 +23°C° 1.8 mm 0 m/s 673 mmHg 92%
17:00 +22°C° 0.9 mm 0 m/s 674 mmHg 93%
18:00 +21°C° 0.9 mm 0 m/s 674 mmHg 94%
19:00 +20°C° 0.9 mm 0 m/s 674 mmHg 95%
20:00 +20°C° 1.3 mm 0 m/s 675 mmHg 96%
21:00 +20°C° 1.3 mm 0 m/s 675 mmHg 96%
22:00 +19°C° 1.3 mm 0 m/s 675 mmHg 96%
23:00 +19°C° 1.2 mm 0 m/s 675 mmHg 96%

26 Outubro, Segunda-feira

Tempo Temperatura Precipitação Vento Pressão Humidade
00:00 +19°C° 1.2 mm 0 m/s 675 mmHg 96%
01:00 +21°C° 1.2 mm 1 m/s 674 mmHg 96%
02:00 +19°C° 0.5 mm 0 m/s 674 mmHg 96%
03:00 +19°C° 0.5 mm 0 m/s 674 mmHg 95%
04:00 +19°C° 0.5 mm 0 m/s 674 mmHg 95%
05:00 +19°C° 0.1 mm 0 m/s 674 mmHg 93%
06:00 +19°C° 0.1 mm 0 m/s 675 mmHg 91%
07:00 +20°C° 0.1 mm 0 m/s 675 mmHg 90%
08:00 +21°C° 0.1 mm 0 m/s 676 mmHg 86%
09:00 +22°C° 0.1 mm 0 m/s 676 mmHg 81%
10:00 +23°C° 0.1 mm 0 m/s 676 mmHg 77%
11:00 +26°C° 0.2 mm 1 m/s 676 mmHg 72%
12:00 +27°C° 0.2 mm 1 m/s 675 mmHg 67%
13:00 +28°C° 0.2 mm 1 m/s 675 mmHg 62%
14:00 +27°C° 0.3 mm 1 m/s 675 mmHg 65%
15:00 +25°C° 0.3 mm 0 m/s 674 mmHg 69%
16:00 +24°C° 0.3 mm 0 m/s 674 mmHg 72%
17:00 +23°C° 0.3 mm 0 m/s 674 mmHg 78%
18:00 +23°C° 0.3 mm 1 m/s 674 mmHg 84%
19:00 +22°C° 0.3 mm 1 m/s 674 mmHg 90%
20:00 +22°C° 0.2 mm 1 m/s 674 mmHg 91%
21:00 +21°C° 0.2 mm 1 m/s 675 mmHg 91%
22:00 +21°C° 0.2 mm 1 m/s 675 mmHg 92%
23:00 +21°C° 0 mm 1 m/s 675 mmHg 91%
Mostrar mais